Regional Weather Roundup
Issued by NWS Green Bay, WI

Home | Current Version | Previous Version | Text Only | Print | Product List | Glossary On
Versions: 1 2 3 4 5 6 7 8 9 10 11 12 13 14 15 16 17 18 19 20 21 22 23 24 25 26 27 28 29 30 31 32 33 34 35 36 37 38 39 40 41 42 43 44 45 46 47 48 49 50
558
ASUS43 KGRB 280700
RWRGRB

NORTH-CENTRAL AND NORTHEAST WISCONSIN REGIONAL WEATHER ROUNDUP
NATIONAL WEATHER SERVICE GREEN BAY WI
200 AM CDT SAT MAY 28 2016

WIZ005-009-010>012-018-019-280800-
NORTH CENTRAL WISCONSIN

CITY           SKY/WX    TMP DP  RH WIND       PRES   REMARKS
IRONWOOD       CLOUDY    59  59 100 NE3       29.75S
MANITOWISH WTR NOT AVBL
ARBOR VITAE    NOT AVBL
EAGLE RIVER    NOT AVBL
LAND O LAKES   NOT AVBL
RHINELANDER    CLOUDY    65  63  93 SE5       29.80F FOG
PHILLIPS       CLOUDY    65  64  94 S7        29.77S
ANTIGO         NOT AVBL
TOMAHAWK       NOT AVBL
MERRILL        CLOUDY    66  66 100 SE5       29.79F
$$

WIZ013-073-280800-
NORTHEAST WISCONSIN

CITY           SKY/WX    TMP DP  RH WIND       PRES   REMARKS
IRON MOUNTAIN  FOG       62  61  96 SE6       29.81F VSB 1/2
MARINETTE      CLOUDY    61  60  97 SE3       29.82F FOG
$$

WIZ017-030-035>037-045-280800-
CENTRAL WISCONSIN

CITY           SKY/WX    TMP DP  RH WIND       PRES   REMARKS
MEDFORD        NOT AVBL
WAUSAU         CLOUDY    68  66  93 SE8       29.76F
MOSINEE        NOT AVBL
MARSHFIELD     CLOUDY    68  65  90 S8        29.75F
WISC RAPIDS    CLOUDY    67  64  90 SE5       29.77F FOG
STEVENS POINT  NOT AVBL
WAUPACA        NOT AVBL
SHAWANO        NOT AVBL
CLINTONVILLE   NOT AVBL
WAUTOMA        CLOUDY    67  67 100 SE5       29.78F FOG
$$

WIZ038-039-048-051-280800-
FOX VALLEY

CITY           SKY/WX    TMP DP  RH WIND       PRES   REMARKS
NWS GREEN BAY  CLOUDY    67  65  93 S6        29.80F
APPLETON       NOT AVBL
OSHKOSH        CLOUDY    68  65  90 S6        29.79F
FOND DU LAC    CLOUDY    69  66  90 S10       29.79F
$$

WIZ022-050-052-280800-
EAST CENTRAL WISCONSIN

CITY           SKY/WX    TMP DP  RH WIND       PRES   REMARKS
EPHRAIM        NOT AVBL
STURGEON BAY   NOT AVBL
MANITOWOC      NOT AVBL
SHEBOYGAN      LGT RAIN  63  61  93 S6        29.82F FOG
$$

LMZ563-521-522-541>543-280800-
LAKESHORE

STATION/POSITION TIME  TEMP    WIND        PRES    VSBY  WAVE
                       AIR SEA DIR/SP/G                  HT/PER
                 (UTC) (F)     (DEG/KT/KT) (MB)    (MI)  (FT/S)
SHEBOYGAN LKSHOR 0600   57     180/ 18/ 19 1010.4F
KEWAUNEE LKSHORE 0600   53                 1009.8F
NORTHPORT PIER   0600   58     150/  9/ 14 1010.8F
N MID LAKE BUOY  0550   53 47  140/ 10/ 12 1011.1F         1
SISTER BAY LKSHO 0620   62     170/ 14/ 22   N/A
CHAMBERS ISLAND  0640   61     160/  3/  9 1009.8F
MENOMINEE LKSHOR 0600   59                 1009.0F
$$




USA.gov is the U.S. government's official web portal to all federal, state and local government web resources and services.